{"data":{"norad_id":66897,"intl_designator":"2025-283V","name":"STARLINK-36079","alt_names":[],"object_type":"PAYLOAD","status":"ACTIVE","operator":null,"country":"US","launch_date":"2025-12-04","launch_site_code":"AFWTR","launch_vehicle":null,"mission":null,"orbit_class":"UNKNOWN","rcs_meters":null,"size_class":null,"mass_kg":null,"dimensions":null,"purposes":["comms"],"wikipedia_slug":null,"has_3d_model":false,"image_url":null,"decayed_at":null,"tle_current":{"epoch":"2026-09-20T04:59:02.577408Z","epoch_age_seconds":109970,"freshness":"FRESH","line1":"1 66897U 25283V   26263.20766872  .00018675  00000+0  56261-3 0  9992","line2":"2 66897  53.1588 197.2533 0001482  81.5648 278.5522 15.34391228 45665","mean_motion":15.34391228,"eccentricity":0.0001482,"inclination_deg":53.1588,"raan_deg":197.2533,"arg_perigee_deg":81.5648,"mean_anomaly_deg":278.5522,"bstar":0.00056261,"rev_number":4566,"period_min":93.848294601955,"perigee_km":461.71549617641,"apogee_km":463.74312895145,"semimajor_km":6840.8663125639,"source":"CELESTRAK","updated_at":"2026-09-21T09:00:36.053356Z"}}}